Location: Southlake
(32.9412°N, 97.1342°W)
Time: 09:33:05
(UTC+00:00)

Cosmos 1503 Rocket - Pass Details

Date: 03 December 2021
Orbit: 752 x 791 km, 74.0° (Epoch: 26 January)

Event Time Altitude Azimuth Distance (km) Brightness Sun altitude
Rises 12:15:12 0° 212° (SSW) 3,211 7.1 -12.5°
Reaches altitude 10° 12:17:40 10° 219° (SW) 2,295 6.3 -12.0°
Maximum altitude 12:22:37 43° 291° (WNW) 1,072 4.3 -11.0°
Drops below altitude 10° 12:27:39 10° 2° (N) 2,332 6.3 -10.0°
Sets 12:30:10 0° 9° (N) 3,269 7.1 -9.5°
